Wetterdaten: Montag, 25.05.2015
Datum Zeit Auen-Temp. Temp gefhlt Luftfeuchte Luftdruck Regen Wind Richtung Richtung Taupunkt Windben
25.05.2015 00:00 7,7 C 7,5 C 87 % 1016,4 hPa 0,0 mm 0,0 km/h (0 Bft) W 270 5,7 C 0,0 km/h (0 Bft)
25.05.2015 00:05 7,7 C 7,5 C 87 % 1016,4 hPa 0,0 mm 0,0 km/h (0 Bft) W 270 5,7 C 0,0 km/h (0 Bft)
25.05.2015 00:10 7,6 C 7,5 C 87 % 1016,4 hPa 0,0 mm 0,0 km/h (0 Bft) W 270 5,6 C 0,0 km/h (0 Bft)
25.05.2015 00:15 7,6 C 7,5 C 87 % 1016,6 hPa 0,0 mm 0,0 km/h (0 Bft) S 180 5,6 C 0,0 km/h (0 Bft)
25.05.2015 00:20 7,6 C 7,5 C 85 % 1016,6 hPa 0,0 mm 0,0 km/h (0 Bft) S 180 5,2 C 0,0 km/h (0 Bft)
25.05.2015 00:25 7,7 C 7,6 C 86 % 1016,6 hPa 0,0 mm 0,3 km/h (0 Bft) S 180 5,5 C 3,6 km/h (1 Bft)
25.05.2015 00:30 7,7 C 7,8 C 86 % 1016,6 hPa 0,0 mm 2,6 km/h (1 Bft) S 180 5,5 C 3,9 km/h (1 Bft)
25.05.2015 00:35 7,8 C 7,8 C 86 % 1016,5 hPa 0,0 mm 3,1 km/h (1 Bft) S 180 5,6 C 0,0 km/h (0 Bft)
25.05.2015 00:40 7,8 C 7,7 C 88 % 1016,5 hPa 0,0 mm 1,0 km/h (0 Bft) S-SO 157 5,9 C 0,0 km/h (0 Bft)
25.05.2015 00:45 7,7 C 7,7 C 86 % 1016,5 hPa 0,0 mm 0,0 km/h (0 Bft) S-SO 157 5,5 C 0,0 km/h (0 Bft)
25.05.2015 00:50 7,7 C 7,6 C 88 % 1016,5 hPa 0,0 mm 0,0 km/h (0 Bft) NW 315 5,8 C 0,0 km/h (0 Bft)
25.05.2015 00:55 7,6 C 7,5 C 88 % 1016,2 hPa 0,0 mm 0,0 km/h (0 Bft) NW 315 5,7 C 0,0 km/h (0 Bft)
25.05.2015 01:00 7,5 C 7,4 C 86 % 1016,2 hPa 0,0 mm 0,0 km/h (0 Bft) NW 315 5,3 C 0,0 km/h (0 Bft)
25.05.2015 01:05 7,5 C 7,4 C 86 % 1016,2 hPa 0,0 mm 0,0 km/h (0 Bft) S 180 5,3 C 0,0 km/h (0 Bft)
25.05.2015 01:10 7,6 C 7,5 C 86 % 1016,2 hPa 0,0 mm 0,0 km/h (0 Bft) S 180 5,4 C 0,0 km/h (0 Bft)
25.05.2015 01:15 7,6 C 7,5 C 86 % 1016,0 hPa 0,0 mm 0,0 km/h (0 Bft) W 270 5,4 C 0,0 km/h (0 Bft)
25.05.2015 01:20 7,5 C 7,5 C 86 % 1016,0 hPa 0,0 mm 0,0 km/h (0 Bft) S 180 5,3 C 0,0 km/h (0 Bft)
25.05.2015 01:25 7,6 C 7,5 C 86 % 1016,0 hPa 0,0 mm 0,0 km/h (0 Bft) S 180 5,4 C 0,0 km/h (0 Bft)
25.05.2015 01:30 7,7 C 7,6 C 86 % 1016,0 hPa 0,0 mm 0,0 km/h (0 Bft) S 180 5,5 C 0,0 km/h (0 Bft)
25.05.2015 01:35 7,7 C 7,6 C 89 % 1016,2 hPa 0,0 mm 0,0 km/h (0 Bft) W 270 6,0 C 0,0 km/h (0 Bft)
25.05.2015 01:40 7,6 C 7,5 C 89 % 1016,2 hPa 0,0 mm 0,0 km/h (0 Bft) W 270 5,9 C 0,0 km/h (0 Bft)
25.05.2015 01:45 7,5 C 7,4 C 88 % 1016,2 hPa 0,0 mm 0,0 km/h (0 Bft) W 270 5,6 C 0,0 km/h (0 Bft)
25.05.2015 01:50 7,5 C 7,4 C 88 % 1016,2 hPa 0,0 mm 0,0 km/h (0 Bft) SW 225 5,6 C 0,0 km/h (0 Bft)
25.05.2015 01:55 7,5 C 7,4 C 86 % 1016,0 hPa 0,0 mm 0,0 km/h (0 Bft) W-SW 247 5,3 C 0,0 km/h (0 Bft)
25.05.2015 02:00 7,5 C 7,5 C 86 % 1016,0 hPa 0,0 mm 0,0 km/h (0 Bft) S 180 5,3 C 0,0 km/h (0 Bft)
25.05.2015 02:05 7,6 C 7,5 C 86 % 1016,0 hPa 0,0 mm 0,0 km/h (0 Bft) S 180 5,4 C 0,0 km/h (0 Bft)
25.05.2015 02:10 7,6 C 7,5 C 86 % 1016,0 hPa 0,0 mm 0,0 km/h (0 Bft) S 180 5,4 C 0,0 km/h (0 Bft)
25.05.2015 02:15 7,6 C 7,5 C 89 % 1016,0 hPa 0,0 mm 0,0 km/h (0 Bft) S 180 5,9 C 0,0 km/h (0 Bft)
25.05.2015 02:20 7,6 C 7,5 C 89 % 1016,0 hPa 0,0 mm 0,5 km/h (0 Bft) S-SW 202 5,9 C 0,0 km/h (0 Bft)
25.05.2015 02:25 7,6 C 7,5 C 89 % 1016,0 hPa 0,0 mm 0,5 km/h (0 Bft) S-SW 202 5,9 C 0,0 km/h (0 Bft)
25.05.2015 02:30 7,4 C 7,3 C 89 % 1016,0 hPa 0,0 mm 0,0 km/h (0 Bft) N-NW 337 5,7 C 0,0 km/h (0 Bft)
25.05.2015 02:35 7,4 C 7,3 C 89 % 1016,0 hPa 0,0 mm 0,0 km/h (0 Bft) N-NO 22 5,7 C 0,0 km/h (0 Bft)
25.05.2015 02:40 7,3 C 7,1 C 89 % 1016,0 hPa 0,0 mm 0,0 km/h (0 Bft) N-NO 22 5,6 C 0,0 km/h (0 Bft)
25.05.2015 02:45 7,4 C 7,2 C 89 % 1016,0 hPa 0,0 mm 0,8 km/h (0 Bft) S 180 5,7 C 0,0 km/h (0 Bft)
25.05.2015 02:50 7,2 C 7,1 C 89 % 1016,0 hPa 0,0 mm 0,8 km/h (0 Bft) SW 225 5,5 C 0,0 km/h (0 Bft)
25.05.2015 02:55 7,1 C 6,9 C 89 % 1015,6 hPa 0,0 mm 0,3 km/h (0 Bft) W-SW 247 5,4 C 0,0 km/h (0 Bft)
25.05.2015 03:00 7,1 C 6,9 C 89 % 1015,6 hPa 0,0 mm 0,0 km/h (0 Bft) W 270 5,4 C 0,0 km/h (0 Bft)
25.05.2015 03:05 7,1 C 6,9 C 89 % 1015,6 hPa 0,0 mm 0,0 km/h (0 Bft) S 180 5,4 C 0,0 km/h (0 Bft)
25.05.2015 03:10 6,8 C 6,7 C 89 % 1015,6 hPa 0,0 mm 0,0 km/h (0 Bft) S 180 5,1 C 0,0 km/h (0 Bft)
25.05.2015 03:15 6,8 C 6,7 C 89 % 1015,2 hPa 0,0 mm 0,0 km/h (0 Bft) SW 225 5,1 C 0,0 km/h (0 Bft)
25.05.2015 03:20 6,7 C 6,6 C 89 % 1015,2 hPa 0,0 mm 0,0 km/h (0 Bft) S-SW 202 5,0 C 0,0 km/h (0 Bft)
25.05.2015 03:25 6,7 C 6,6 C 89 % 1015,2 hPa 0,0 mm 0,0 km/h (0 Bft) S 180 5,0 C 0,0 km/h (0 Bft)
25.05.2015 03:30 6,7 C 6,6 C 89 % 1015,2 hPa 0,0 mm 0,0 km/h (0 Bft) S 180 5,0 C 0,0 km/h (0 Bft)
25.05.2015 03:35 6,7 C 6,6 C 89 % 1015,3 hPa 0,0 mm 0,0 km/h (0 Bft) S 180 5,0 C 0,0 km/h (0 Bft)
25.05.2015 03:40 6,7 C 6,6 C 89 % 1015,3 hPa 0,0 mm 0,0 km/h (0 Bft) W-SW 247 5,0 C 0,0 km/h (0 Bft)
25.05.2015 03:45 6,8 C 6,6 C 89 % 1015,3 hPa 0,0 mm 0,0 km/h (0 Bft) S 180 5,1 C 0,0 km/h (0 Bft)
25.05.2015 03:50 6,8 C 6,7 C 90 % 1015,3 hPa 0,0 mm 0,0 km/h (0 Bft) S 180 5,3 C 0,0 km/h (0 Bft)
25.05.2015 03:55 6,7 C 6,6 C 90 % 1015,4 hPa 0,0 mm 0,0 km/h (0 Bft) NO 45 5,2 C 0,0 km/h (0 Bft)
25.05.2015 04:00 6,7 C 6,6 C 90 % 1015,4 hPa 0,0 mm 0,3 km/h (0 Bft) O 90 5,2 C 0,0 km/h (0 Bft)
25.05.2015 04:05 6,7 C 6,6 C 90 % 1015,4 hPa 0,0 mm 0,5 km/h (0 Bft) SW 225 5,2 C 2,8 km/h (1 Bft)
25.05.2015 04:10 6,7 C 6,6 C 90 % 1015,4 hPa 0,0 mm 0,5 km/h (0 Bft) S 180 5,2 C 0,0 km/h (0 Bft)
25.05.2015 04:15 6,7 C 6,6 C 90 % 1015,5 hPa 0,0 mm 0,3 km/h (0 Bft) SW 225 5,2 C 0,0 km/h (0 Bft)
25.05.2015 04:20 6,9 C 6,8 C 90 % 1015,5 hPa 0,0 mm 1,3 km/h (1 Bft) S 180 5,4 C 4,9 km/h (1 Bft)
25.05.2015 04:25 6,9 C 6,9 C 87 % 1015,5 hPa 0,0 mm 1,3 km/h (1 Bft) S 180 4,9 C 6,0 km/h (2 Bft)
25.05.2015 04:30 6,8 C 6,7 C 90 % 1015,5 hPa 0,0 mm 1,3 km/h (1 Bft) W-SW 247 5,3 C 6,5 km/h (2 Bft)
25.05.2015 04:35 6,8 C 6,7 C 90 % 1015,6 hPa 0,0 mm 1,8 km/h (1 Bft) S-SW 202 5,3 C 0,0 km/h (0 Bft)
25.05.2015 04:40 6,7 C 6,6 C 90 % 1015,6 hPa 0,0 mm 1,3 km/h (1 Bft) W 270 5,2 C 0,0 km/h (0 Bft)
25.05.2015 04:45 6,6 C 6,5 C 90 % 1015,6 hPa 0,0 mm 0,0 km/h (0 Bft) W 270 5,1 C 0,0 km/h (0 Bft)
25.05.2015 04:50 6,7 C 6,5 C 90 % 1015,6 hPa 0,0 mm 0,5 km/h (0 Bft) SW 225 5,2 C 4,1 km/h (1 Bft)
25.05.2015 04:55 6,7 C 6,6 C 90 % 1015,4 hPa 0,0 mm 0,8 km/h (0 Bft) SO 135 5,2 C 0,0 km/h (0 Bft)
25.05.2015 05:00 6,6 C 6,5 C 90 % 1015,4 hPa 0,0 mm 0,5 km/h (0 Bft) SO 135 5,1 C 0,0 km/h (0 Bft)
25.05.2015 05:05 6,6 C 6,5 C 90 % 1015,4 hPa 0,0 mm 0,3 km/h (0 Bft) SO 135 5,1 C 0,0 km/h (0 Bft)
25.05.2015 05:10 6,8 C 6,7 C 87 % 1015,4 hPa 0,0 mm 0,0 km/h (0 Bft) S-SO 157 4,8 C 0,0 km/h (0 Bft)
25.05.2015 05:15 6,8 C 6,7 C 87 % 1015,2 hPa 0,0 mm 0,0 km/h (0 Bft) SO 135 4,8 C 0,0 km/h (0 Bft)
25.05.2015 05:20 6,7 C 6,6 C 90 % 1015,2 hPa 0,0 mm 0,3 km/h (0 Bft) NW 315 5,2 C 0,0 km/h (0 Bft)
25.05.2015 05:25 6,7 C 6,6 C 90 % 1015,2 hPa 0,0 mm 0,3 km/h (0 Bft) W-SW 247 5,2 C 0,0 km/h (0 Bft)
25.05.2015 05:30 6,9 C 6,8 C 90 % 1015,2 hPa 0,0 mm 1,3 km/h (1 Bft) SW 225 5,4 C 0,0 km/h (0 Bft)
25.05.2015 05:35 6,9 C 6,8 C 90 % 1015,1 hPa 0,0 mm 1,3 km/h (1 Bft) NW 315 5,4 C 0,0 km/h (0 Bft)
25.05.2015 05:40 6,8 C 6,7 C 87 % 1015,1 hPa 0,0 mm 0,0 km/h (0 Bft) NW 315 4,8 C 0,0 km/h (0 Bft)
25.05.2015 05:45 6,8 C 6,7 C 90 % 1015,1 hPa 0,0 mm 0,0 km/h (0 Bft) NW 315 5,3 C 0,0 km/h (0 Bft)
25.05.2015 05:50 6,7 C 6,6 C 90 % 1015,1 hPa 0,0 mm 0,0 km/h (0 Bft) NW 315 5,2 C 0,0 km/h (0 Bft)
25.05.2015 05:55 6,7 C 6,6 C 90 % 1015,2 hPa 0,0 mm 0,0 km/h (0 Bft) NW 315 5,2 C 0,0 km/h (0 Bft)
25.05.2015 06:00 6,7 C 6,7 C 87 % 1015,2 hPa 0,0 mm 0,0 km/h (0 Bft) NW 315 4,7 C 0,0 km/h (0 Bft)
25.05.2015 06:05 6,7 C 6,7 C 87 % 1015,2 hPa 0,0 mm 0,0 km/h (0 Bft) NW 315 4,7 C 0,0 km/h (0 Bft)
25.05.2015 06:10 6,8 C 6,7 C 90 % 1015,2 hPa 0,0 mm 0,0 km/h (0 Bft) NW 315 5,3 C 0,0 km/h (0 Bft)
25.05.2015 06:15 6,8 C 6,7 C 87 % 1015,2 hPa 0,0 mm 0,0 km/h (0 Bft) NW 315 4,8 C 0,0 km/h (0 Bft)
25.05.2015 06:20 6,8 C 6,8 C 87 % 1015,2 hPa 0,0 mm 0,0 km/h (0 Bft) NW 315 4,8 C 0,0 km/h (0 Bft)
25.05.2015 06:25 6,9 C 6,9 C 88 % 1015,2 hPa 0,0 mm 0,0 km/h (0 Bft) NW 315 5,1 C 0,0 km/h (0 Bft)
25.05.2015 06:30 7,0 C 6,9 C 87 % 1015,2 hPa 0,0 mm 0,0 km/h (0 Bft) NW 315 5,0 C 0,0 km/h (0 Bft)
25.05.2015 06:35 7,0 C 7,0 C 87 % 1015,4 hPa 0,0 mm 0,0 km/h (0 Bft) NW 315 5,0 C 0,0 km/h (0 Bft)
25.05.2015 06:40 7,1 C 7,1 C 87 % 1015,4 hPa 0,0 mm 0,0 km/h (0 Bft) W-SW 247 5,1 C 0,0 km/h (0 Bft)
25.05.2015 06:45 7,1 C 7,2 C 87 % 1015,4 hPa 0,0 mm 0,0 km/h (0 Bft) W 270 5,1 C 0,0 km/h (0 Bft)
25.05.2015 06:50 7,2 C 7,2 C 87 % 1015,4 hPa 0,0 mm 0,0 km/h (0 Bft) W-NW 292 5,2 C 0,0 km/h (0 Bft)
25.05.2015 06:55 7,2 C 7,2 C 87 % 1015,2 hPa 0,0 mm 0,0 km/h (0 Bft) N-NW 337 5,2 C 0,0 km/h (0 Bft)
25.05.2015 07:00 7,3 C 7,3 C 87 % 1015,2 hPa 0,0 mm 0,0 km/h (0 Bft) N-NW 337 5,3 C 0,0 km/h (0 Bft)
25.05.2015 07:05 7,3 C 7,3 C 87 % 1015,2 hPa 0,0 mm 0,0 km/h (0 Bft) N-NW 337 5,3 C 0,0 km/h (0 Bft)
25.05.2015 07:10 7,3 C 7,4 C 88 % 1015,2 hPa 0,0 mm 0,0 km/h (0 Bft) N 360 5,4 C 0,0 km/h (0 Bft)
25.05.2015 07:15 7,3 C 7,4 C 88 % 1015,3 hPa 0,0 mm 0,0 km/h (0 Bft) O-NO 67 5,4 C 0,0 km/h (0 Bft)
25.05.2015 07:20 7,4 C 7,5 C 88 % 1015,3 hPa 0,0 mm 0,0 km/h (0 Bft) N-NW 337 5,5 C 0,0 km/h (0 Bft)
25.05.2015 07:25 7,5 C 7,6 C 88 % 1015,3 hPa 0,0 mm 0,0 km/h (0 Bft) N-NW 337 5,6 C 0,0 km/h (0 Bft)
25.05.2015 07:30 7,5 C 7,7 C 88 % 1015,3 hPa 0,0 mm 0,0 km/h (0 Bft) W-NW 292 5,6 C 0,0 km/h (0 Bft)
25.05.2015 07:35 7,6 C 7,8 C 88 % 1015,3 hPa 0,0 mm 0,0 km/h (0 Bft) NW 315 5,7 C 0,0 km/h (0 Bft)
25.05.2015 07:40 7,7 C 7,9 C 88 % 1015,3 hPa 0,0 mm 0,0 km/h (0 Bft) N-NO 22 5,8 C 0,0 km/h (0 Bft)
25.05.2015 07:45 7,7 C 7,9 C 88 % 1015,3 hPa 0,0 mm 0,0 km/h (0 Bft) O-NO 67 5,8 C 0,0 km/h (0 Bft)
25.05.2015 07:50 7,8 C 7,9 C 88 % 1015,3 hPa 0,0 mm 0,0 km/h (0 Bft) NO 45 5,9 C 0,0 km/h (0 Bft)
25.05.2015 07:55 7,9 C 8,0 C 88 % 1015,3 hPa 0,0 mm 0,0 km/h (0 Bft) N-NO 22 6,0 C 0,0 km/h (0 Bft)
25.05.2015 08:00 8,0 C 8,1 C 87 % 1015,3 hPa 0,0 mm 0,0 km/h (0 Bft) O-NO 67 6,0 C 0,0 km/h (0 Bft)
25.05.2015 08:05 8,1 C 8,2 C 87 % 1015,3 hPa 0,0 mm 0,0 km/h (0 Bft) O-NO 67 6,1 C 0,0 km/h (0 Bft)
25.05.2015 08:10 8,2 C 8,5 C 87 % 1015,3 hPa 0,0 mm 0,0 km/h (0 Bft) N-NO 22 6,2 C 0,0 km/h (0 Bft)
25.05.2015 08:15 8,3 C 8,6 C 87 % 1015,2 hPa 0,0 mm 0,0 km/h (0 Bft) N-NO 22 6,3 C 0,0 km/h (0 Bft)
25.05.2015 08:20 8,4 C 8,6 C 87 % 1015,2 hPa 0,0 mm 0,0 km/h (0 Bft) N-NO 22 6,4 C 0,0 km/h (0 Bft)
25.05.2015 08:25 8,5 C 8,6 C 87 % 1015,2 hPa 0,0 mm 0,0 km/h (0 Bft) O-NO 67 6,5 C 0,0 km/h (0 Bft)
25.05.2015 08:30 8,5 C 8,7 C 87 % 1015,2 hPa 0,0 mm 0,0 km/h (0 Bft) O-NO 67 6,5 C 0,0 km/h (0 Bft)
25.05.2015 08:35 8,6 C 8,9 C 87 % 1015,1 hPa 0,0 mm 0,0 km/h (0 Bft) O-NO 67 6,6 C 0,0 km/h (0 Bft)
25.05.2015 08:40 8,8 C 9,1 C 87 % 1015,1 hPa 0,0 mm 0,0 km/h (0 Bft) N 360 6,8 C 0,0 km/h (0 Bft)
25.05.2015 08:45 8,9 C 9,2 C 87 % 1015,1 hPa 0,0 mm 0,0 km/h (0 Bft) N-NW 337 6,9 C 0,0 km/h (0 Bft)
25.05.2015 08:50 9,1 C 9,3 C 87 % 1015,1 hPa 0,0 mm 0,0 km/h (0 Bft) N-NO 22 7,1 C 0,0 km/h (0 Bft)
25.05.2015 08:55 9,1 C 9,5 C 87 % 1015,1 hPa 0,0 mm 0,0 km/h (0 Bft) N-NO 22 7,1 C 0,0 km/h (0 Bft)
25.05.2015 09:00 9,4 C 9,7 C 87 % 1015,1 hPa 0,0 mm 0,0 km/h (0 Bft) N-NW 337 7,3 C 0,0 km/h (0 Bft)
25.05.2015 09:05 9,4 C 9,9 C 87 % 1015,1 hPa 0,0 mm 0,0 km/h (0 Bft) N-NW 337 7,3 C 0,0 km/h (0 Bft)
25.05.2015 09:10 9,6 C 10,2 C 87 % 1015,1 hPa 0,0 mm 0,3 km/h (0 Bft) NW 315 7,5 C 0,0 km/h (0 Bft)
25.05.2015 09:15 9,7 C 10,3 C 87 % 1015,1 hPa 0,0 mm 0,3 km/h (0 Bft) N-NW 337 7,6 C 0,0 km/h (0 Bft)
25.05.2015 09:20 9,9 C 10,7 C 87 % 1015,1 hPa 0,0 mm 0,0 km/h (0 Bft) N-NW 337 7,8 C 0,0 km/h (0 Bft)
25.05.2015 09:25 10,0 C 11,0 C 86 % 1015,1 hPa 0,0 mm 0,0 km/h (0 Bft) O-NO 67 7,8 C 0,0 km/h (0 Bft)
25.05.2015 09:30 10,2 C 11,4 C 86 % 1015,1 hPa 0,0 mm 0,0 km/h (0 Bft) N-NO 22 8,0 C 0,0 km/h (0 Bft)
25.05.2015 09:35 10,2 C 11,6 C 86 % 1015,1 hPa 0,0 mm 0,0 km/h (0 Bft) N-NO 22 8,0 C 0,0 km/h (0 Bft)
25.05.2015 09:40 10,4 C 11,9 C 86 % 1015,1 hPa 0,0 mm 0,3 km/h (0 Bft) NO 45 8,2 C 2,8 km/h (1 Bft)
25.05.2015 09:45 10,4 C 12,0 C 86 % 1015,1 hPa 0,0 mm 0,5 km/h (0 Bft) O-NO 67 8,2 C 0,0 km/h (0 Bft)
25.05.2015 09:50 10,5 C 12,1 C 86 % 1015,1 hPa 0,0 mm 1,0 km/h (0 Bft) O-NO 67 8,3 C 3,1 km/h (1 Bft)
25.05.2015 09:55 10,5 C 12,2 C 86 % 1014,9 hPa 0,0 mm 0,8 km/h (0 Bft) N-NO 22 8,3 C 0,0 km/h (0 Bft)
25.05.2015 10:00 10,7 C 12,5 C 86 % 1014,9 hPa 0,0 mm 0,8 km/h (0 Bft) NO 45 8,5 C 0,0 km/h (0 Bft)
25.05.2015 10:05 10,9 C 12,8 C 86 % 1014,9 hPa 0,0 mm 0,0 km/h (0 Bft) O-NO 67 8,7 C 0,0 km/h (0 Bft)
25.05.2015 10:10 11,1 C 13,2 C 86 % 1014,9 hPa 0,0 mm 0,0 km/h (0 Bft) N-NW 337 8,8 C 0,0 km/h (0 Bft)
25.05.2015 10:15 11,3 C 13,5 C 85 % 1014,9 hPa 0,0 mm 0,0 km/h (0 Bft) N-NO 22 8,9 C 0,0 km/h (0 Bft)
25.05.2015 10:20 11,5 C 13,8 C 85 % 1014,9 hPa 0,0 mm 0,0 km/h (0 Bft) NO 45 9,1 C 0,0 km/h (0 Bft)
25.05.2015 10:25 11,6 C 14,1 C 85 % 1014,9 hPa 0,0 mm 0,0 km/h (0 Bft) N-NW 337 9,2 C 0,0 km/h (0 Bft)
25.05.2015 10:30 11,8 C 14,4 C 85 % 1014,9 hPa 0,0 mm 0,0 km/h (0 Bft) W 270 9,4 C 0,0 km/h (0 Bft)
25.05.2015 10:35 12,1 C 14,6 C 84 % 1014,7 hPa 0,0 mm 0,3 km/h (0 Bft) NW 315 9,5 C 2,8 km/h (1 Bft)
25.05.2015 10:40 12,3 C 14,6 C 84 % 1014,7 hPa 0,0 mm 1,3 km/h (1 Bft) N-NW 337 9,7 C 2,8 km/h (1 Bft)
25.05.2015 10:45 12,4 C 14,8 C 83 % 1014,7 hPa 0,0 mm 1,3 km/h (1 Bft) NW 315 9,6 C 0,0 km/h (0 Bft)
25.05.2015 10:50 12,6 C 15,0 C 83 % 1014,7 hPa 0,0 mm 1,0 km/h (0 Bft) NW 315 9,8 C 3,6 km/h (1 Bft)
25.05.2015 10:55 12,7 C 15,2 C 82 % 1014,8 hPa 0,0 mm 1,6 km/h (1 Bft) NW 315 9,7 C 4,4 km/h (1 Bft)
25.05.2015 11:00 12,8 C 15,2 C 81 % 1014,8 hPa 0,0 mm 3,4 km/h (1 Bft) NW 315 9,6 C 5,2 km/h (1 Bft)
25.05.2015 11:05 12,9 C 15,4 C 81 % 1014,8 hPa 0,0 mm 3,9 km/h (1 Bft) S-SW 202 9,7 C 7,0 km/h (2 Bft)
25.05.2015 11:10 13,0 C 15,3 C 79 % 1014,8 hPa 0,0 mm 4,9 km/h (1 Bft) W-NW 292 9,4 C 8,8 km/h (2 Bft)
25.05.2015 11:15 13,0 C 15,3 C 79 % 1014,6 hPa 0,0 mm 4,9 km/h (1 Bft) NW 315 9,4 C 10,6 km/h (2 Bft)
25.05.2015 11:20 13,1 C 15,3 C 78 % 1014,6 hPa 0,0 mm 4,9 km/h (1 Bft) NW 315 9,4 C 2,8 km/h (1 Bft)
25.05.2015 11:25 13,2 C 15,3 C 78 % 1014,6 hPa 0,0 mm 4,9 km/h (1 Bft) W-NW 292 9,4 C 14,0 km/h (3 Bft)
25.05.2015 11:30 13,1 C 15,1 C 77 % 1014,6 hPa 0,0 mm 5,4 km/h (1 Bft) NW 315 9,2 C 3,9 km/h (1 Bft)
25.05.2015 11:35 13,1 C 15,0 C 77 % 1014,7 hPa 0,0 mm 5,4 km/h (1 Bft) NW 315 9,2 C 14,5 km/h (3 Bft)
25.05.2015 11:40 13,0 C 14,8 C 76 % 1014,7 hPa 0,0 mm 4,9 km/h (1 Bft) W-NW 292 8,9 C 7,0 km/h (2 Bft)
25.05.2015 11:45 13,0 C 14,6 C 76 % 1014,7 hPa 0,0 mm 5,2 km/h (1 Bft) W 270 8,9 C 6,7 km/h (2 Bft)
25.05.2015 11:50 13,0 C 14,4 C 76 % 1014,7 hPa 0,0 mm 3,9 km/h (1 Bft) W-NW 292 8,9 C 4,7 km/h (1 Bft)
25.05.2015 11:55 13,0 C 14,4 C 76 % 1014,5 hPa 0,0 mm 2,8 km/h (1 Bft) NW 315 8,9 C 0,0 km/h (0 Bft)
25.05.2015 12:00 13,0 C 14,3 C 76 % 1014,5 hPa 0,0 mm 2,8 km/h (1 Bft) W-NW 292 8,9 C 0,0 km/h (0 Bft)
25.05.2015 12:05 12,9 C 14,3 C 76 % 1014,5 hPa 0,0 mm 2,3 km/h (1 Bft) NW 315 8,8 C 4,9 km/h (1 Bft)
25.05.2015 12:10 12,9 C 14,3 C 76 % 1014,5 hPa 0,0 mm 1,0 km/h (0 Bft) NW 315 8,8 C 2,6 km/h (1 Bft)
25.05.2015 12:15 12,9 C 14,3 C 76 % 1014,5 hPa 0,0 mm 1,8 km/h (1 Bft) W-NW 292 8,8 C 7,0 km/h (2 Bft)
25.05.2015 12:20 12,9 C 14,4 C 76 % 1014,5 hPa 0,0 mm 2,1 km/h (1 Bft) NW 315 8,8 C 4,1 km/h (1 Bft)
25.05.2015 12:25 12,9 C 14,4 C 76 % 1014,5 hPa 0,0 mm 2,1 km/h (1 Bft) W-NW 292 8,8 C 4,1 km/h (1 Bft)
25.05.2015 12:30 13,0 C 14,6 C 75 % 1014,5 hPa 0,0 mm 2,6 km/h (1 Bft) N-NW 337 8,7 C 6,0 km/h (2 Bft)
25.05.2015 12:35 13,0 C 14,6 C 75 % 1014,3 hPa 0,0 mm 2,8 km/h (1 Bft) W 270 8,7 C 0,0 km/h (0 Bft)
25.05.2015 12:40 13,2 C 15,0 C 75 % 1014,3 hPa 0,0 mm 3,4 km/h (1 Bft) NW 315 8,9 C 8,5 km/h (2 Bft)
25.05.2015 12:45 13,2 C 15,0 C 75 % 1014,3 hPa 0,0 mm 3,1 km/h (1 Bft) W 270 8,9 C 7,5 km/h (2 Bft)
25.05.2015 12:50 13,4 C 15,1 C 75 % 1014,3 hPa 0,0 mm 5,2 km/h (1 Bft) NW 315 9,1 C 7,0 km/h (2 Bft)
25.05.2015 12:55 13,5 C 15,2 C 74 % 1014,3 hPa 0,0 mm 4,1 km/h (1 Bft) NW 315 9,0 C 5,2 km/h (1 Bft)
25.05.2015 13:00 13,7 C 15,7 C 74 % 1014,3 hPa 0,0 mm 2,1 km/h (1 Bft) W-SW 247 9,2 C 3,4 km/h (1 Bft)
25.05.2015 13:05 13,8 C 15,9 C 74 % 1014,3 hPa 0,0 mm 1,6 km/h (1 Bft) NW 315 9,2 C 3,6 km/h (1 Bft)
25.05.2015 13:10 13,9 C 16,2 C 73 % 1014,3 hPa 0,0 mm 3,1 km/h (1 Bft) W 270 9,1 C 9,6 km/h (2 Bft)
25.05.2015 13:15 13,9 C 16,2 C 73 % 1014,2 hPa 0,0 mm 4,4 km/h (1 Bft) W-NW 292 9,1 C 6,2 km/h (2 Bft)
25.05.2015 13:20 14,1 C 16,4 C 72 % 1014,2 hPa 0,0 mm 5,7 km/h (1 Bft) NW 315 9,1 C 8,0 km/h (2 Bft)
25.05.2015 13:25 14,1 C 16,4 C 72 % 1014,2 hPa 0,0 mm 6,2 km/h (2 Bft) NW 315 9,1 C 15,3 km/h (3 Bft)
25.05.2015 13:30 14,3 C 16,7 C 72 % 1014,2 hPa 0,0 mm 4,9 km/h (1 Bft) W 270 9,3 C 5,2 km/h (1 Bft)
25.05.2015 13:35 14,3 C 16,7 C 72 % 1014,1 hPa 0,0 mm 5,2 km/h (1 Bft) NW 315 9,3 C 7,8 km/h (2 Bft)
25.05.2015 13:40 14,4 C 16,8 C 72 % 1014,1 hPa 0,0 mm 5,2 km/h (1 Bft) N-NW 337 9,4 C 0,0 km/h (0 Bft)
25.05.2015 13:45 14,6 C 17,1 C 72 % 1014,1 hPa 0,0 mm 4,4 km/h (1 Bft) W-NW 292 9,6 C 4,1 km/h (1 Bft)
25.05.2015 13:50 14,7 C 17,2 C 72 % 1014,1 hPa 0,0 mm 5,2 km/h (1 Bft) NW 315 9,7 C 8,3 km/h (2 Bft)
25.05.2015 13:55 14,7 C 17,0 C 71 % 1014,0 hPa 0,0 mm 5,2 km/h (1 Bft) NW 315 9,5 C 0,0 km/h (0 Bft)
25.05.2015 14:00 14,7 C 17,2 C 71 % 1014,0 hPa 0,0 mm 4,7 km/h (1 Bft) W-SW 247 9,5 C 9,1 km/h (2 Bft)
25.05.2015 14:05 14,7 C 17,2 C 71 % 1014,0 hPa 0,0 mm 3,1 km/h (1 Bft) NW 315 9,5 C 0,0 km/h (0 Bft)
25.05.2015 14:10 14,9 C 17,6 C 71 % 1014,0 hPa 0,0 mm 2,8 km/h (1 Bft) S 180 9,7 C 0,0 km/h (0 Bft)
25.05.2015 14:15 15,0 C 17,7 C 70 % 1013,8 hPa 0,0 mm 2,1 km/h (1 Bft) W 270 9,6 C 5,7 km/h (1 Bft)
25.05.2015 14:20 15,1 C 17,9 C 70 % 1013,8 hPa 0,0 mm 3,1 km/h (1 Bft) NW 315 9,7 C 7,0 km/h (2 Bft)
25.05.2015 14:25 15,1 C 17,9 C 69 % 1013,8 hPa 0,0 mm 5,2 km/h (1 Bft) W 270 9,5 C 6,5 km/h (2 Bft)
25.05.2015 14:30 15,2 C 18,3 C 69 % 1013,8 hPa 0,0 mm 3,1 km/h (1 Bft) W-SW 247 9,6 C 0,0 km/h (0 Bft)
25.05.2015 14:35 15,3 C 18,6 C 69 % 1013,6 hPa 0,0 mm 2,6 km/h (1 Bft) SW 225 9,6 C 5,2 km/h (1 Bft)
25.05.2015 14:40 15,3 C 18,3 C 68 % 1013,6 hPa 0,0 mm 4,9 km/h (1 Bft) SW 225 9,4 C 2,8 km/h (1 Bft)
25.05.2015 14:45 15,4 C 18,6 C 68 % 1013,6 hPa 0,0 mm 3,9 km/h (1 Bft) W 270 9,5 C 0,0 km/h (0 Bft)
25.05.2015 14:50 15,6 C 19,1 C 68 % 1013,6 hPa 0,0 mm 2,3 km/h (1 Bft) NW 315 9,7 C 7,0 km/h (2 Bft)
25.05.2015 14:55 15,6 C 19,1 C 67 % 1013,6 hPa 0,0 mm 3,4 km/h (1 Bft) W 270 9,5 C 0,0 km/h (0 Bft)
25.05.2015 15:00 15,9 C 19,7 C 67 % 1013,6 hPa 0,0 mm 3,4 km/h (1 Bft) N-NW 337 9,8 C 6,2 km/h (2 Bft)
25.05.2015 15:05 15,9 C 19,7 C 66 % 1013,6 hPa 0,0 mm 3,4 km/h (1 Bft) W-SW 247 9,6 C 7,3 km/h (2 Bft)
25.05.2015 15:10 15,9 C 20,0 C 65 % 1013,6 hPa 0,0 mm 3,4 km/h (1 Bft) O-SO 112 9,3 C 0,0 km/h (0 Bft)
25.05.2015 15:15 16,0 C 20,5 C 64 % 1013,3 hPa 0,0 mm 1,3 km/h (1 Bft) SW 225 9,2 C 0,0 km/h (0 Bft)
25.05.2015 15:20 16,1 C 20,9 C 63 % 1013,3 hPa 0,0 mm 1,8 km/h (1 Bft) NW 315 9,1 C 2,6 km/h (1 Bft)
25.05.2015 15:25 16,4 C 21,0 C 62 % 1013,3 hPa 0,0 mm 3,1 km/h (1 Bft) NW 315 9,1 C 4,9 km/h (1 Bft)
25.05.2015 15:30 16,7 C 21,8 C 61 % 1013,3 hPa 0,0 mm 3,9 km/h (1 Bft) NW 315 9,1 C 3,4 km/h (1 Bft)
25.05.2015 15:35 17,1 C 22,3 C 61 % 1013,0 hPa 0,0 mm 4,1 km/h (1 Bft) NO 45 9,5 C 3,1 km/h (1 Bft)
25.05.2015 15:40 17,4 C 22,9 C 59 % 1013,0 hPa 0,0 mm 3,1 km/h (1 Bft) N-NO 22 9,3 C 2,8 km/h (1 Bft)
25.05.2015 15:45 17,4 C 23,1 C 59 % 1013,0 hPa 0,0 mm 3,9 km/h (1 Bft) N-NO 22 9,3 C 3,4 km/h (1 Bft)
25.05.2015 15:50 17,6 C 23,8 C 58 % 1013,0 hPa 0,0 mm 4,7 km/h (1 Bft) NO 45 9,2 C 4,9 km/h (1 Bft)
25.05.2015 15:55 17,7 C 24,0 C 58 % 1012,8 hPa 0,0 mm 5,7 km/h (1 Bft) NW 315 9,3 C 9,6 km/h (2 Bft)
25.05.2015 16:00 17,6 C 24,0 C 57 % 1012,8 hPa 0,0 mm 5,4 km/h (1 Bft) W-NW 292 9,0 C 10,9 km/h (2 Bft)
25.05.2015 16:05 17,4 C 24,0 C 56 % 1012,8 hPa 0,0 mm 4,1 km/h (1 Bft) S-SW 202 8,5 C 15,5 km/h (3 Bft)
25.05.2015 16:10 17,0 C 24,1 C 55 % 1012,8 hPa 0,0 mm 3,1 km/h (1 Bft) O-NO 67 7,9 C 3,9 km/h (1 Bft)
25.05.2015 16:15 16,9 C 24,6 C 55 % 1012,6 hPa 0,0 mm 1,8 km/h (1 Bft) W-SW 247 7,8 C 2,8 km/h (1 Bft)
25.05.2015 16:20 16,8 C 25,4 C 55 % 1012,6 hPa 0,0 mm 1,8 km/h (1 Bft) N-NO 22 7,7 C 7,0 km/h (2 Bft)
25.05.2015 16:25 16,9 C 25,0 C 54 % 1012,6 hPa 0,0 mm 3,1 km/h (1 Bft) O-NO 67 7,5 C 6,2 km/h (2 Bft)
25.05.2015 16:30 17,0 C 24,3 C 55 % 1012,6 hPa 0,0 mm 6,5 km/h (2 Bft) W-NW 292 7,9 C 6,0 km/h (2 Bft)
25.05.2015 16:35 17,2 C 23,9 C 54 % 1012,4 hPa 0,0 mm 7,5 km/h (2 Bft) S 180 7,8 C 13,7 km/h (3 Bft)
25.05.2015 16:40 17,0 C 22,1 C 54 % 1012,4 hPa 0,0 mm 5,7 km/h (1 Bft) S 180 7,6 C 10,4 km/h (2 Bft)
25.05.2015 16:45 17,0 C 21,2 C 55 % 1012,4 hPa 0,0 mm 5,2 km/h (1 Bft) N-NO 22 7,9 C 4,1 km/h (1 Bft)
25.05.2015 16:50 17,1 C 21,5 C 54 % 1012,4 hPa 0,0 mm 3,6 km/h (1 Bft) NW 315 7,7 C 4,1 km/h (1 Bft)
25.05.2015 16:55 17,1 C 21,1 C 55 % 1012,2 hPa 0,0 mm 2,1 km/h (1 Bft) W-NW 292 8,0 C 4,9 km/h (1 Bft)
25.05.2015 17:00 16,8 C 19,6 C 56 % 1012,2 hPa 0,0 mm 3,4 km/h (1 Bft) N-NW 337 8,0 C 9,6 km/h (2 Bft)
25.05.2015 17:05 16,7 C 18,7 C 57 % 1012,2 hPa 0,0 mm 4,4 km/h (1 Bft) W-NW 292 8,1 C 3,4 km/h (1 Bft)
25.05.2015 17:10 16,4 C 17,9 C 56 % 1012,2 hPa 0,0 mm 4,9 km/h (1 Bft) W 270 7,6 C 7,3 km/h (2 Bft)
25.05.2015 17:15 16,2 C 17,8 C 56 % 1012,2 hPa 0,0 mm 5,2 km/h (1 Bft) W-NW 292 7,4 C 16,6 km/h (3 Bft)
25.05.2015 17:20 16,1 C 17,2 C 57 % 1012,2 hPa 0,0 mm 6,0 km/h (2 Bft) NW 315 7,6 C 8,0 km/h (2 Bft)
25.05.2015 17:25 16,0 C 17,1 C 57 % 1012,2 hPa 0,0 mm 5,4 km/h (1 Bft) NW 315 7,5 C 16,6 km/h (3 Bft)
25.05.2015 17:30 16,0 C 17,2 C 58 % 1012,2 hPa 0,0 mm 5,2 km/h (1 Bft) W 270 7,7 C 4,7 km/h (1 Bft)
25.05.2015 17:35 16,1 C 17,4 C 58 % 1012,2 hPa 0,0 mm 4,7 km/h (1 Bft) W 270 7,8 C 3,6 km/h (1 Bft)
25.05.2015 17:40 16,4 C 17,9 C 59 % 1012,2 hPa 0,0 mm 5,2 km/h (1 Bft) NW 315 8,4 C 11,1 km/h (2 Bft)
25.05.2015 17:45 16,5 C 18,0 C 59 % 1012,2 hPa 0,0 mm 7,0 km/h (2 Bft) NW 315 8,5 C 12,7 km/h (3 Bft)
25.05.2015 17:50 15,9 C 17,6 C 58 % 1012,2 hPa 0,0 mm 10,1 km/h (2 Bft) W 270 7,6 C 10,6 km/h (2 Bft)
25.05.2015 17:55 15,1 C 16,7 C 59 % 1012,4 hPa 0,0 mm 11,4 km/h (2 Bft) NW 315 7,1 C 31,8 km/h (5 Bft)
25.05.2015 18:00 14,3 C 15,5 C 60 % 1012,4 hPa 0,0 mm 9,6 km/h (2 Bft) NW 315 6,6 C 9,6 km/h (2 Bft)
25.05.2015 18:05 14,1 C 14,9 C 61 % 1012,4 hPa 0,0 mm 8,5 km/h (2 Bft) W 270 6,7 C 9,1 km/h (2 Bft)
25.05.2015 18:10 13,8 C 14,4 C 62 % 1012,4 hPa 0,0 mm 6,7 km/h (2 Bft) W-SW 247 6,6 C 12,7 km/h (3 Bft)
25.05.2015 18:15 13,6 C 14,1 C 62 % 1012,4 hPa 0,0 mm 7,0 km/h (2 Bft) W-NW 292 6,5 C 7,8 km/h (2 Bft)
25.05.2015 18:20 13,3 C 13,6 C 62 % 1012,4 hPa 0,0 mm 8,0 km/h (2 Bft) W 270 6,2 C 14,8 km/h (3 Bft)
25.05.2015 18:25 13,1 C 13,3 C 63 % 1012,4 hPa 0,0 mm 7,8 km/h (2 Bft) O 90 6,2 C 4,4 km/h (1 Bft)
25.05.2015 18:30 12,6 C 12,6 C 65 % 1012,4 hPa 0,0 mm 5,4 km/h (1 Bft) SW 225 6,2 C 5,2 km/h (1 Bft)
25.05.2015 18:35 12,3 C 12,1 C 65 % 1012,4 hPa 0,0 mm 4,4 km/h (1 Bft) NW 315 5,9 C 11,4 km/h (2 Bft)
25.05.2015 18:40 11,7 C 11,3 C 67 % 1012,4 hPa 0,0 mm 6,2 km/h (2 Bft) S 180 5,8 C 9,3 km/h (2 Bft)
25.05.2015 18:45 11,5 C 11,1 C 69 % 1012,4 hPa 0,0 mm 7,0 km/h (2 Bft) S 180 6,0 C 6,2 km/h (2 Bft)
25.05.2015 18:50 11,2 C 10,8 C 75 % 1012,4 hPa 0,0 mm 3,1 km/h (1 Bft) S-SO 157 6,9 C 2,8 km/h (1 Bft)
25.05.2015 18:55 11,2 C 10,8 C 75 % 1012,2 hPa 0,0 mm 1,0 km/h (0 Bft) SO 135 6,9 C 0,0 km/h (0 Bft)
25.05.2015 19:00 11,2 C 10,8 C 76 % 1012,2 hPa 0,0 mm 0,5 km/h (0 Bft) SO 135 7,1 C 0,0 km/h (0 Bft)
25.05.2015 19:05 11,3 C 11,0 C 76 % 1012,2 hPa 0,0 mm 0,0 km/h (0 Bft) SO 135 7,2 C 0,0 km/h (0 Bft)
25.05.2015 19:10 11,3 C 11,1 C 75 % 1012,2 hPa 0,0 mm 0,0 km/h (0 Bft) SW 225 7,0 C 2,6 km/h (1 Bft)
25.05.2015 19:15 11,3 C 11,1 C 75 % 1012,2 hPa 0,7 mm 0,0 km/h (0 Bft) SO 135 7,0 C 0,0 km/h (0 Bft)
25.05.2015 19:20 11,3 C 11,1 C 75 % 1012,2 hPa 0,0 mm 0,3 km/h (0 Bft) S-SO 157 7,0 C 0,0 km/h (0 Bft)
25.05.2015 19:25 11,3 C 11,1 C 75 % 1012,2 hPa 0,0 mm 0,3 km/h (0 Bft) W-NW 292 7,0 C 0,0 km/h (0 Bft)
25.05.2015 19:30 11,3 C 11,1 C 75 % 1012,2 hPa 0,0 mm 0,8 km/h (0 Bft) S 180 7,0 C 0,0 km/h (0 Bft)
25.05.2015 19:35 11,3 C 11,1 C 76 % 1012,1 hPa 0,0 mm 1,6 km/h (1 Bft) S 180 7,2 C 2,6 km/h (1 Bft)
25.05.2015 19:40 11,2 C 11,1 C 77 % 1012,1 hPa 0,0 mm 1,3 km/h (1 Bft) O-SO 112 7,3 C 0,0 km/h (0 Bft)
25.05.2015 19:45 11,1 C 11,1 C 76 % 1012,1 hPa 0,0 mm 1,0 km/h (0 Bft) N 360 7,0 C 3,1 km/h (1 Bft)
25.05.2015 19:50 11,3 C 11,2 C 75 % 1012,1 hPa 0,0 mm 3,4 km/h (1 Bft) SO 135 7,0 C 0,0 km/h (0 Bft)
25.05.2015 19:55 11,3 C 11,2 C 75 % 1012,3 hPa 0,0 mm 4,9 km/h (1 Bft) S 180 7,0 C 3,9 km/h (1 Bft)
25.05.2015 20:01 11,1 C 11,0 C 75 % 1012,3 hPa 0,0 mm 2,8 km/h (1 Bft) W-SW 247 6,8 C 8,5 km/h (2 Bft)
25.05.2015 20:05 11,0 C 10,8 C 75 % 1012,3 hPa 0,0 mm 2,3 km/h (1 Bft) SW 225 6,7 C 9,6 km/h (2 Bft)
25.05.2015 20:10 10,9 C 10,7 C 76 % 1012,3 hPa 0,0 mm 4,1 km/h (1 Bft) S 180 6,8 C 12,2 km/h (2 Bft)
25.05.2015 20:15 10,9 C 10,8 C 77 % 1012,7 hPa 0,0 mm 6,0 km/h (2 Bft) W-SW 247 7,0 C 6,5 km/h (2 Bft)
25.05.2015 20:20 10,9 C 10,7 C 78 % 1012,7 hPa 0,0 mm 6,5 km/h (2 Bft) S-SW 202 7,2 C 19,2 km/h (3 Bft)
25.05.2015 20:25 10,8 C 10,6 C 78 % 1012,7 hPa 0,0 mm 6,0 km/h (2 Bft) W 270 7,1 C 4,1 km/h (1 Bft)
25.05.2015 20:30 10,7 C 10,5 C 80 % 1012,7 hPa 0,0 mm 5,7 km/h (1 Bft) NW 315 7,4 C 6,7 km/h (2 Bft)
25.05.2015 20:35 10,6 C 10,4 C 80 % 1012,8 hPa 0,0 mm 5,7 km/h (1 Bft) N-NO 22 7,3 C 8,3 km/h (2 Bft)
25.05.2015 20:40 10,5 C 10,3 C 81 % 1012,8 hPa 0,0 mm 5,4 km/h (1 Bft) NW 315 7,4 C 3,9 km/h (1 Bft)
25.05.2015 20:45 10,5 C 10,3 C 81 % 1012,8 hPa 0,0 mm 3,9 km/h (1 Bft) SW 225 7,4 C 4,4 km/h (1 Bft)
25.05.2015 20:50 10,4 C 10,2 C 81 % 1012,8 hPa 0,0 mm 3,4 km/h (1 Bft) W 270 7,3 C 3,1 km/h (1 Bft)
25.05.2015 20:55 10,4 C 10,2 C 81 % 1013,2 hPa 0,0 mm 3,9 km/h (1 Bft) NW 315 7,3 C 7,3 km/h (2 Bft)
25.05.2015 21:00 10,3 C 10,1 C 82 % 1013,2 hPa 0,0 mm 3,6 km/h (1 Bft) O-NO 67 7,4 C 4,1 km/h (1 Bft)
25.05.2015 21:05 10,1 C 9,8 C 82 % 1013,2 hPa 0,0 mm 2,8 km/h (1 Bft) W-SW 247 7,2 C 0,0 km/h (0 Bft)
25.05.2015 21:10 10,0 C 9,7 C 82 % 1013,2 hPa 0,0 mm 3,4 km/h (1 Bft) NW 315 7,1 C 3,1 km/h (1 Bft)
25.05.2015 21:15 9,9 C 9,7 C 83 % 1013,2 hPa 0,0 mm 2,8 km/h (1 Bft) W-SW 247 7,2 C 3,1 km/h (1 Bft)
25.05.2015 21:20 9,8 C 9,6 C 83 % 1013,2 hPa 0,0 mm 2,6 km/h (1 Bft) S 180 7,1 C 6,0 km/h (2 Bft)
25.05.2015 21:25 9,7 C 9,5 C 83 % 1013,2 hPa 0,0 mm 3,4 km/h (1 Bft) S 180 7,0 C 6,0 km/h (2 Bft)
25.05.2015 21:30 9,6 C 9,4 C 83 % 1013,2 hPa 0,7 mm 3,6 km/h (1 Bft) W 270 6,9 C 5,4 km/h (1 Bft)
25.05.2015 21:35 9,6 C 9,4 C 84 % 1013,2 hPa 0,0 mm 2,8 km/h (1 Bft) W 270 7,0 C 4,7 km/h (1 Bft)
25.05.2015 21:40 9,5 C 9,3 C 84 % 1013,2 hPa 0,0 mm 3,1 km/h (1 Bft) S-SW 202 6,9 C 8,3 km/h (2 Bft)
25.05.2015 21:45 9,5 C 9,3 C 84 % 1013,2 hPa 0,0 mm 3,1 km/h (1 Bft) SW 225 6,9 C 0,0 km/h (0 Bft)
25.05.2015 21:50 9,4 C 9,2 C 84 % 1013,2 hPa 0,0 mm 3,1 km/h (1 Bft) SW 225 6,8 C 3,1 km/h (1 Bft)
25.05.2015 21:55 9,4 C 9,2 C 85 % 1013,4 hPa 0,0 mm 2,8 km/h (1 Bft) SW 225 7,0 C 5,4 km/h (1 Bft)
25.05.2015 22:00 9,4 C 9,2 C 85 % 1013,4 hPa 0,0 mm 2,8 km/h (1 Bft) S 180 7,0 C 3,1 km/h (1 Bft)
25.05.2015 22:05 9,4 C 9,2 C 85 % 1013,4 hPa 0,0 mm 3,6 km/h (1 Bft) S 180 7,0 C 4,9 km/h (1 Bft)
25.05.2015 22:10 9,4 C 9,2 C 86 % 1013,4 hPa 0,0 mm 3,6 km/h (1 Bft) W 270 7,2 C 0,0 km/h (0 Bft)
25.05.2015 22:15 9,4 C 9,2 C 86 % 1013,4 hPa 0,0 mm 3,4 km/h (1 Bft) S 180 7,2 C 4,4 km/h (1 Bft)
25.05.2015 22:20 9,4 C 9,2 C 86 % 1013,4 hPa 0,0 mm 3,1 km/h (1 Bft) S-SW 202 7,2 C 6,2 km/h (2 Bft)
25.05.2015 22:25 9,4 C 9,2 C 86 % 1013,4 hPa 0,0 mm 3,9 km/h (1 Bft) W-SW 247 7,2 C 3,1 km/h (1 Bft)
25.05.2015 22:30 9,4 C 9,2 C 86 % 1013,4 hPa 0,0 mm 3,6 km/h (1 Bft) W 270 7,2 C 0,0 km/h (0 Bft)
25.05.2015 22:35 9,4 C 9,2 C 86 % 1013,4 hPa 0,0 mm 2,1 km/h (1 Bft) W 270 7,2 C 0,0 km/h (0 Bft)
25.05.2015 22:40 9,3 C 9,2 C 86 % 1013,4 hPa 0,0 mm 0,0 km/h (0 Bft) W-SW 247 7,1 C 0,0 km/h (0 Bft)
25.05.2015 22:45 9,3 C 9,2 C 86 % 1013,4 hPa 0,0 mm 0,0 km/h (0 Bft) SW 225 7,1 C 0,0 km/h (0 Bft)
25.05.2015 22:50 9,3 C 9,1 C 86 % 1013,4 hPa 0,0 mm 0,0 km/h (0 Bft) SW 225 7,1 C 0,0 km/h (0 Bft)
25.05.2015 22:55 9,3 C 9,2 C 86 % 1013,4 hPa 0,0 mm 0,0 km/h (0 Bft) SW 225 7,1 C 0,0 km/h (0 Bft)
25.05.2015 23:00 9,3 C 9,2 C 86 % 1013,4 hPa 0,0 mm 0,0 km/h (0 Bft) S-SW 202 7,1 C 0,0 km/h (0 Bft)
25.05.2015 23:05 9,4 C 9,3 C 86 % 1013,4 hPa 0,0 mm 0,3 km/h (0 Bft) W 270 7,2 C 0,0 km/h (0 Bft)
25.05.2015 23:10 9,4 C 9,3 C 86 % 1013,4 hPa 0,0 mm 0,8 km/h (0 Bft) O-SO 112 7,2 C 0,0 km/h (0 Bft)
25.05.2015 23:15 9,4 C 9,3 C 87 % 1013,4 hPa 0,7 mm 1,0 km/h (0 Bft) S-SW 202 7,3 C 0,0 km/h (0 Bft)
25.05.2015 23:20 9,4 C 9,3 C 87 % 1013,4 hPa 0,0 mm 0,5 km/h (0 Bft) W 270 7,3 C 0,0 km/h (0 Bft)
25.05.2015 23:25 9,4 C 9,3 C 87 % 1013,4 hPa 0,0 mm 0,3 km/h (0 Bft) W 270 7,3 C 0,0 km/h (0 Bft)
25.05.2015 23:30 9,4 C 9,3 C 87 % 1013,4 hPa 0,0 mm 0,0 km/h (0 Bft) W 270 7,3 C 0,0 km/h (0 Bft)
25.05.2015 23:35 9,4 C 9,3 C 87 % 1013,2 hPa 0,0 mm 0,5 km/h (0 Bft) NW 315 7,3 C 0,0 km/h (0 Bft)
25.05.2015 23:40 9,3 C 9,2 C 87 % 1013,2 hPa 0,0 mm 0,8 km/h (0 Bft) W-SW 247 7,2 C 0,0 km/h (0 Bft)
25.05.2015 23:45 9,3 C 9,2 C 87 % 1013,2 hPa 0,0 mm 0,5 km/h (0 Bft) SW 225 7,2 C 0,0 km/h (0 Bft)
25.05.2015 23:50 9,3 C 9,2 C 87 % 1013,2 hPa 0,0 mm 0,5 km/h (0 Bft) SW 225 7,2 C 2,6 km/h (1 Bft)
25.05.2015 23:55 9,3 C 9,2 C 87 % 1013,2 hPa 0,7 mm 1,3 km/h (1 Bft) O 90 7,2 C 6,0 km/h (2 Bft)
_ Min-Zeit 05:05 05:05 16:50 19:50 - 23:30 - - 06:05 23:45
Minimum _ 6,6 C 6,5 C 54 % 1012,1 hPa - 0,0 km/h (0 Bft) - - 4,7 C 0,0 km/h (0 Bft)
_ Max-Zeit 15:55 16:20 06:10 00:30 23:55 17:55 - - 10:50 17:55
Maximum _ 17,7 C 25,4 C 90 % 1016,6 hPa 0,7 mm 11,4 km/h
NW (2 Bft)
- - 9,8 C 31,8 km/h
NW (5 Bft)
Durchschnitt _ 10,7 C 11,7 C 79 % 1014,3 hPa #2,7 mm 2,1 km/h (1 Bft) NW - 7,1 C 3,0 km/h (1 Bft)